Torna al catalogo

STARLINK-32658

AttivoComunicazioniVLEO
NORAD 62999·PAYLOAD·🇺🇸 United States

Lanciato Feb 11, 2025 da Cape Canaveral Space Force Station

Loading…

Prossimi Passaggi (prossime 24 ore)

TLE

AggiornatoSource: CelesTrak SupGP

Epoca: Sep 14, 2026, 14:01 UTC

1 62999C 25031U   26257.58451389  .00037821  00000+0  13702-2 0  2573
2 62999  43.0019 156.4169 0001432 263.9867 175.8664 15.27552814    15

Traccia STARLINK-32658 in tempo reale con AllMySat

Download on the App Store